Simultaneous Nadir Overpasses (SNOs) Predictions

Prediction of SNOs between AURA and NPP Satellite Orbit:

Table of predicted SNOs for the next 14.0 days since TLE Epoch: 10/25/2013
Index Date (AURA) Time (AURA) Lat,Lon (AURA) SZA (AURA ) Date (NPP) Time (NPP) Lat,Lon (NPP) SZA (NPP ) Distance(km) Time Diff (sec)
1 10/26/2013 02:52:21 78.99, 30.46 104.61 10/26/2013 02:52:15 78.99, 30.49 104.61 0.79 6
2 10/26/2013 03:41:42 -79.24,-160.37 75.71 10/26/2013 03:42:54 -79.23,-160.50 75.74 2.99 72
3 10/28/2013 18:19:30 -78.71, -22.86 74.19 10/28/2013 18:18:35 -78.70, -22.98 74.12 2.90 55
4 10/28/2013 19:08:46 79.11, 147.07 105.33 10/28/2013 19:09:08 79.11, 147.07 105.31 0.29 22
5 10/31/2013 10:35:53 -78.89, 94.00 73.55 10/31/2013 10:35:26 -78.89, 94.02 73.54 0.67 27
6 10/31/2013 11:25:12 79.15, -96.77 106.12 10/31/2013 11:26:03 79.14, -96.89 106.11 2.85 51
7 11/03/2013 02:03:52 76.17, 30.74 110.33 11/03/2013 02:02:38 76.34, 30.01 110.50 26.63 74
8 11/03/2013 02:52:15 -79.06,-149.08 72.94 11/03/2013 02:52:17 -79.07,-148.96 72.97 2.47 2
9 11/05/2013 18:19:19 78.78, 157.54 108.21 11/05/2013 18:18:34 78.78, 157.53 108.25 0.36 45
10 11/05/2013 19:08:37 -79.16, -32.57 72.26 11/05/2013 19:09:09 -79.17, -32.46 72.31 2.50 32
11 11/08/2013 10:35:42 78.85, -86.18 108.91 11/08/2013 10:35:28 78.84, -86.28 108.94 2.20 14




NCC Satellite Simultaneous Nadir Overpasses (SNOs) Prediction Service
